Location: Brachbach
(49.1847°N, 9.7240°E)
Time: 14:05:37
(UTC+00:00)

CZ-2C R/B - Pass Details

Date: 10 August 2024
Orbit: 782 x 869 km, 98.3° (Epoch: 15 September)

Event Time Altitude Azimuth Distance (km) Brightness Sun altitude
Exits shadow 02:31:05 18° 243° (WSW) 1,980 4.0 -13.6°
Maximum altitude 02:33:00 21° 270° (W) 1,813 4.0 -13.4°
Drops below altitude 10° 02:37:06 10° 319° (NW) 2,467 5.2 -12.9°
Sets 02:40:03 0° 335° (NNW) 3,391 6.1 -12.5°
